Location: Cella
(44.7333°N, 10.5667°E)
Time: 09:58:26
(UTC+00:00)

Cosmos 1844 Rocket - Pass Details

Date: 03 March 2021
Orbit: 826 x 843 km, 71.0° (Epoch: 19 April)

Event Time Altitude Azimuth Distance (km) Brightness Sun altitude
Rises 18:22:48 0° 336° (NNW) 3,374 6.3 -14.0°
Reaches altitude 10° 18:25:16 10° 338° (NNW) 2,436 5.5 -14.5°
Maximum altitude 18:30:50 70° 63° (ENE) 878 2.6 -15.4°
Enters shadow 18:36:04 12° 146° (SSE) 2,312 4.6 -16.4°
